Погода в Апухтине

Россия / Тверская область     57°01′34″N   38°09′02″E
темп.,
°C
ветер,
м/с
пор.,
м/с
влажн.,
%
обл.,
%
осадки,
мм/ч
давл.,
гПа
погр.,
м
26 февраля, пт
пт2600:00+1зюз36100100 0.1 1011160
03:00+1юз37100100 1.6 1009183
06:00+2зюз410100100 1.6 1006264
09:00+2зюз613100100 3.4 1003415
12:00+2зюз614100100 2.1 1001463
15:00+2з716100100 3.4 999668
18:00+2з71588100 0.0 998860
21:00+1з91597100 0.3 998888
27 февраля, сб
сб2700:00+1зсз81594100 0.8 997904
03:000зсз81597100 0.9 999884
06:00−7ссз71394100 1.5 1000655
09:00−11с61189100 1.6 1003593
12:00−10ссз5990100 0.0 1006542
15:00−9ссз5989100 0.1 1008531
18:00−11ссз499396 0.0 1010290
21:00−13ссз389563 0.0 1013189
28 февраля, вс
вс2800:00−13ссз359669 0.0 1014120
03:00−12ссз379674 0.1 1016211
06:00−13ссз349785 0.1 101676
09:00−9ссз489590 0.2 1017315
12:00−5ссз579196 0.1 1017664
15:00−4ссз579098 0.2 1018731
18:00−5ссз3792100 0.1 1019357
21:00−6ссз2496100 0.1 1021171
1 марта, пн
пн100:00−5сз2396100 0.1 1022125
03:00−5сз2496100 0.2 1023152
06:00−6зсз1296100 0.1 102424
09:00−5зюз3495100 0.1 1024150
12:00−3зюз469182 0.0 1024447
15:00−1зюз579283 0.0 1023539
18:00−1зюз51096100 0.1 1020492
21:000зюз61197100 0.3 1019480
2 марта, вт
вт200:00+1з61298100 0.3 1017556
03:00+1з61396100 0.3 1015569
06:00+1з61297100 0.1 1013566
09:00+1зсз61199100 1.0 1013621
12:00+1сз61199100 0.3 1012671
15:00+1зсз6129695 0.6 1012882
18:00−1зсз6139192 0.2 1012542
21:00−1сз6129495 0.4 1013848